Weather in Puerto Plata

Dominican Republic     19°47′23″N   70°41′24″W
temp.,
°C
wind,
m/s
gust,
m/s
humid.,
%
clouds,
%
prec.,
mm/h
press.,
hPa
HPBL,
m
5 december, sun
sun523:00+21se239523 0.0 1018166
02:00+20se1396100 0.1 1017155
05:00+20se2296100 0.0 1017121
08:00+22se148721 0.0 1018182
11:00+29ene375420 0.0 10181572
14:00+30ene565412 0.0 10161722
17:00+27ene477038 0.0 1016796
20:00+22ese2496100 0.0 1018201
6 december, mon
mon623:00+21ese249624 0.0 1019166
02:00+21ese239727 0.0 1018158
05:00+20se249620 0.0 1018144
08:00+22se269142 0.0 1020242
11:00+29e37535 0.0 10201570
14:00+30ene46497 0.0 10161824
17:00+27ene47650 0.0 1016957
20:00+22ese24931 0.0 1018202
7 december, tue
tue723:00+21se249619 0.0 1018163
02:00+21se249617 0.0 1017127
05:00+21se239630 0.1 1016131
08:00+22se25912 0.1 1018223
11:00+29e36549 0.0 10181500
14:00+29ene575622 0.0 10141538
17:00+26ene48710 0.0 1014727
20:00+22ese24910 0.0 1016211
8 december, wed
wed823:00+21se249624 0.0 1017183
02:00+20se239612 0.0 1016113
05:00+20sse22958 0.0 1016115
08:00+21se14870 0.1 1018168
11:00+29e36520 0.0 10171366
14:00+30ene56500 0.0 10141529
17:00+27ene48690 0.0 1014809
20:00+22e24911 0.0 1016178
9 december, thu
thu923:00+21se249615 0.0 1016146
02:00+20sse229617 0.0 101689
05:00+20sse22956 0.0 101667
08:00+21sse13910 0.0 1017113
11:00+29e35480 0.0 10171385
14:00+29ene55510 0.0 10151500
17:00+26ene47630 0.0 1015711
20:00+21ese24810 0.0 1016177